Flag for Germany Weather past 2 weeks in Fürth, Bavaria, Germany

54 °F

Passing clouds.

Feels Like: 54 °F
Forecast: 43 / 63 °F
Wind: 1 mph from North

Location: Nuernberg

Current Time: Oct 8, 2015 at 10:52:27 PM

Latest Report: Oct 8, 2015 at 10:20 PM

Visibility: N/A

Pressure: 30.15 "Hg

Humidity: 88%

Dew point: 50 °F

Location of FürthLocation

Historic Weather in Fürth — Graph


Fürth temperature yesterday

Maximum temperature yesterday: 63 °F (at 11:50 AM)
Minimum temperature yesterday: 55 °F (at 1:20 AM)
Average temperature yesterday: 59 °F

Past Weeks' High & Low Weather Summary

High70 °F (Oct 2, 2:50 PM)100% (Sep 26, 7:50 AM)30.57 "Hg (Sep 26, 7:50 AM)
Low34 °F (Oct 2, 7:50 AM)30% (Oct 2, 2:20 PM)29.71 "Hg (Oct 6, 2:50 PM)
Average54 °F73%30.19 "Hg
* Reported Sep 23 9:20 PM — Oct 8 9:20 PM, Fürth, Weather by CustomWeather, © 2015

Note: Actual official high and low records may vary slightly from our data, if they occured in-between our weather recording intervals... More about our weather records


Fürth weather history for previous 24 hours

Time TempWeatherWind HumidityBarometerVisibility
9:20 PM
Thu, Oct 8
54 °FPassing clouds.1 mph88%30.12 "HgN/A
8:50 PM54 °FPassing clouds.1 mph82%30.12 "HgN/A
8:20 PM54 °FPassing clouds.1 mph88%30.12 "HgN/A
7:50 PM55 °FClear.1 mph82%30.12 "Hg10 mi
7:20 PM55 °FScattered clouds.2 mph82%30.12 "HgN/A
6:50 PM57 °FScattered clouds.2 mph72%30.12 "HgN/A
6:20 PM59 °FPassing clouds.3 mph68%30.12 "HgN/A
5:50 PM59 °FPartly sunny.7 mph63%30.12 "HgN/A
5:20 PM63 °FPassing clouds.8 mph52%30.09 "HgN/A
4:50 PM61 °FPassing clouds.8 mph59%30.09 "HgN/A
4:20 PM63 °FPassing clouds.13 mph52%30.09 "HgN/A
3:50 PM61 °FPassing clouds.14 mph55%30.09 "HgN/A
3:20 PM63 °FPassing clouds.12 mph56%30.09 "HgN/A
2:50 PM63 °FPassing clouds.8 mph52%30.09 "HgN/A
2:20 PM63 °FScattered clouds.7 mph59%30.09 "HgN/A
1:50 PM63 °FScattered clouds.9 mph64%30.09 "HgN/A
1:20 PM61 °FScattered clouds.7 mph63%30.09 "HgN/A
12:50 PM59 °FScattered clouds.8 mph72%30.12 "HgN/A
12:20 PM57 °FBroken clouds.7 mph72%30.12 "HgN/A
11:50 AM59 °FPartly sunny.6 mph72%30.12 "HgN/A
11:20 AM57 °FPartly sunny.9 mph77%30.09 "HgN/A
10:50 AM55 °FBroken clouds.8 mph77%30.09 "HgN/A
10:20 AM55 °FPartly sunny.9 mph82%30.09 "HgN/A
9:50 AM54 °FPartly sunny.9 mph88%30.09 "HgN/A
9:20 AM54 °FPartly sunny.10 mph88%30.09 "HgN/A
8:50 AM54 °FPartly sunny.9 mph88%30.09 "HgN/A
8:20 AM54 °FPassing clouds.7 mph88%30.09 "HgN/A
7:50 AM52 °FPassing clouds.6 mph94%30.07 "HgN/A
7:20 AM54 °FPassing clouds.5 mph88%30.07 "HgN/A
6:50 AM54 °FPassing clouds.5 mph88%30.07 "HgN/A
5:20 AM52 °FPassing clouds.2 mph94%30.07 "HgN/A
4:50 AM52 °FPartly cloudy.5 mph94%30.07 "HgN/A
4:20 AM54 °FPartly cloudy.5 mph88%30.07 "HgN/A
3:50 AM54 °FPassing clouds.5 mph88%30.07 "HgN/A
3:20 AM54 °FPassing clouds.5 mph88%30.07 "HgN/A
2:50 AM54 °FPassing clouds.6 mph88%30.07 "HgN/A
2:20 AM54 °FPartly cloudy.6 mph88%30.04 "HgN/A
1:50 AM54 °FPassing clouds.6 mph94%30.04 "HgN/A
1:20 AM55 °FPartly cloudy.8 mph88%30.04 "HgN/A
12:50 AM55 °FPassing clouds.5 mph88%30.04 "HgN/A
11:50 PM
Wed, Oct 7
57 °FPassing clouds.7 mph82%30.04 "HgN/A
11:20 PM57 °FPassing clouds.7 mph82%30.04 "HgN/A
10:50 PM57 °FPassing clouds.5 mph82%30.04 "HgN/A
10:20 PM57 °FPassing clouds.6 mph82%30.04 "HgN/A
Weather by CustomWeather, © 2015

See weather overviewHow to use our weather pages